Weather History for KNSE - March, 2013

Change the Weather History Date:

Thursday, March 7, 2013

  Actual Average Record
Temperature  
Mean Temperature 49 °F -  
Max Temperature 64 °F 66 °F 77 °F (2005)
Min Temperature 34 °F 46 °F 32 °F (2015)
Degree Days  
Heating Degree Days 16    
Moisture  
Dew Point 30 °F    
Average Humidity 56    
Maximum Humidity 76    
Minimum Humidity 27    
Precipitation  
Precipitation 0.00 in - - ()
Sea Level Pressure  
Sea Level Pressure 30.23 in    
Wind  
Wind Speed 4 mph (NNW)    
Max Wind Speed 9 mph    
Max Gust Speed -    
Visibility 10 miles    
Events      
Averages and records for this station are not official NWS values.
T = Trace of Precipitation, MM = Missing Value Source: NWS Daily Summary

Daily Weather History Graph

Daily Weather History Graph

Search for Another Location

Airport or City:

Trip Planner

Search our weather history database for the weather conditions in past years. The results will help you decide how hot, cold, wet, or windy it might be!

Date:

Astronomy

Mar. 07, 2013 Rise Set
Actual Time 6:07 AM CST 5:51 PM CST
Civil Twilight 5:43 AM CST 6:15 PM CST
Nautical Twilight 5:15 AM CST 6:43 PM CST
Astronomical Twilight 4:47 AM CST 7:11 PM CST
Moon 2:52 AM CST (3/7) 1:51 PM CST (3/7)
Length of Visible Light 12h 31m
Length of Day
11h 43m
Waning Crescent, 20% of the Moon is Illuminated
Mar 7
Waning Crescent
Mar 11
New
Mar 19
First Quarter
Mar 27
Full
Apr 2
Last Quarter

Hourly Weather History & Observations

Time (CST) Temp. Windchill Dew Point Humidity Pressure Visibility Wind Dir Wind Speed Gust Speed Precip Events Conditions
12:56 AM 37.9 °F 35.5 °F 28.0 °F 68% 30.23 in 10.0 mi North 3.5 mph - N/A   Clear
1:56 AM 36.0 °F - 28.0 °F 73% 30.22 in 10.0 mi Calm Calm - N/A   Clear
2:56 AM 34.0 °F - 27.0 °F 75% 30.22 in 10.0 mi Calm Calm - N/A   Clear
3:56 AM 35.1 °F 32.2 °F 27.0 °F 72% 30.22 in 10.0 mi North 3.5 mph - N/A   Clear
4:56 AM 35.1 °F 32.2 °F 27.0 °F 72% 30.22 in 10.0 mi North 3.5 mph - N/A   Clear
5:56 AM 35.1 °F 30.1 °F 27.0 °F 72% 30.24 in 10.0 mi North 5.8 mph - N/A   Mostly Cloudy
6:56 AM 35.1 °F 29.3 °F 28.0 °F 76% 30.25 in 10.0 mi North 6.9 mph - N/A   Mostly Cloudy
7:56 AM 39.9 °F 35.1 °F 28.0 °F 63% 30.29 in 10.0 mi Variable 6.9 mph - N/A   Scattered Clouds
8:56 AM 46.0 °F 41.9 °F 27.0 °F 47% 30.30 in 10.0 mi NNE 8.1 mph - N/A   Partly Cloudy
9:56 AM 50.0 °F - 26.1 °F 39% 30.30 in 10.0 mi NNW 4.6 mph - N/A   Partly Cloudy
10:56 AM 55.0 °F - 26.1 °F 33% 30.28 in 10.0 mi North 6.9 mph - N/A   Partly Cloudy
11:56 AM 57.9 °F - 28.0 °F 32% 30.27 in 10.0 mi NW 9.2 mph - N/A   Partly Cloudy
12:56 PM 61.0 °F - 28.9 °F 30% 30.22 in 10.0 mi NNW 6.9 mph - N/A   Partly Cloudy
1:56 PM 63.0 °F - 28.0 °F 27% 30.20 in 10.0 mi Variable 4.6 mph - N/A   Partly Cloudy
2:56 PM 64.0 °F - 30.0 °F 28% 30.19 in 10.0 mi NW 6.9 mph - N/A   Partly Cloudy
3:56 PM 63.0 °F - 30.0 °F 29% 30.18 in 10.0 mi NW 5.8 mph - N/A   Mostly Cloudy
4:56 PM 60.1 °F - 30.9 °F 33% 30.18 in 10.0 mi West 3.5 mph - N/A   Mostly Cloudy
5:56 PM 53.1 °F - 36.0 °F 52% 30.20 in 10.0 mi West 3.5 mph - N/A   Mostly Cloudy
6:56 PM 48.9 °F - 36.0 °F 61% 30.21 in 10.0 mi West 4.6 mph - N/A   Mostly Cloudy
7:56 PM 45.0 °F - 36.0 °F 71% 30.20 in 10.0 mi Calm Calm - N/A   Scattered Clouds
8:56 PM 44.1 °F 42.5 °F 36.0 °F 73% 30.22 in 10.0 mi WNW 3.5 mph - N/A   Partly Cloudy
9:56 PM 43.0 °F 40.3 °F 35.1 °F 74% 30.23 in 9.0 mi NNW 4.6 mph - N/A   Clear
10:56 PM 45.0 °F - 34.0 °F 65% 30.22 in 8.0 mi Calm Calm - N/A   Clear
11:56 PM 42.1 °F 40.2 °F 33.1 °F 70% 30.21 in 9.0 mi North 3.5 mph - N/A   Clear